Вернуться в каталог

STARLINK-4519

АктивенСвязьVLEO
NORAD 53439·PAYLOAD·🇺🇸 United States

Запущен Aug 10, 2022 с Cape Canaveral Space Force Station

Loading…

Ближайшие Пролёты (ближайшие 24 часа)

TLE

СвежийSource: CelesTrak SupGP

Эпоха: Sep 15, 2026, 02:12 UTC

1 53439C 22097BD  26258.09215278  .00041191  00000+0  12170-2 0  2587
2 53439  53.1590 318.6990 0001275  79.4340 301.8858 15.34370088    10

Отслеживайте STARLINK-4519 в реальном времени с AllMySat

Download on the App Store